Regional Weather Roundup
Issued by NWS Glasgow, MT

Home | Current Version | Previous Version | Text Only | Print | Product List | Glossary On
Versions: 1 2 3 4 5 6 7 8 9 10 11 12 13 14 15 16 17 18 19 20 21 22 23 24 25 26 27
000
ASUS45 KGGW 221615
RWRGGW
HOURLY REGIONAL WEATHER ROUNDUP FOR NORTHEAST MONTANA
NATIONAL WEATHER SERVICE GLASGOW MONTANA
1000 AM MDT THU JUN 22 2017

NOTE: "FAIR" INDICATES FEW OR NO CLOUDS BELOW 12,000 FEET WITH NO
SIGNIFICANT WEATHER AND/OR OBSTRUCTIONS TO VISISBILITY.

NORTHEAST MONTANA


CITY           SKY/WX    TMP DP  RH WIND       PRES   REMARKS
GLASGOW        SUNNY     63  37  38 W16G25    29.92F
PLENTYWOOD       N/A     62  36  37 NW20G35     N/A
WOLF POINT     SUNNY     66  38  35 W16G22    29.90F
JORDAN           N/A     65  33  30 W12       29.96F
WINNETT          N/A     65  30  27 W9G18       N/A
SIDNEY         SUNNY     65  38  36 NW17      29.90S
GLENDIVE       PTSUNNY   65  38  36 NW13      29.94S
MALTA            N/A     63  36  36 W12G20      N/A

FORT PECK REPORTS


CITY           SKY/WX    TMP DP  RH WIND       PRES   REMARKS
FORT PECK        N/A     62  40  44 W15         N/A
THE PINES        N/A     66  33  29 CALM        N/A

SOUTHEAST MONTANA


CITY           SKY/WX    TMP DP  RH WIND       PRES   REMARKS
BILLINGS       MOSUNNY   65  39  38 SW9       30.02F
MILES CITY     SUNNY     68  34  28 N10       29.96F
BAKER          SUNNY     66  39  37 NW16G23   29.95S
LIVINGSTON     SUNNY     64  28  25 W18G28    30.08S

CENTRAL MONTANA


CITY           SKY/WX    TMP DP  RH WIND       PRES   REMARKS
HAVRE          SUNNY     64  33  31 NW22      30.01S
LEWISTOWN      MOSUNNY   59  35  40 NW8       30.04S
GREAT FALLS    SUNNY     61  38  42 VRB5      30.07R
CUT BANK       SUNNY     59  25  27 NW21G28   30.09R
HELENA         SUNNY     66  30  26 NW16G24   30.09S
BUTTE          SUNNY     57  25  29 W17       30.15F
BOZEMAN        SUNNY     62  28  27 VRB7      30.11F

WESTERN MONTANA


CITY           SKY/WX    TMP DP  RH WIND       PRES   REMARKS
MISSOULA       SUNNY     61  37  41 CALM      30.13S
KALISPELL      NOT AVBL

NORTH DAKOTA


CITY           SKY/WX    TMP DP  RH WIND       PRES   REMARKS
WILLISTON      SUNNY     67  38  34 NW21G29   29.86F
DICKINSON      SUNNY     66  40  38 NW21G29   29.88R
MINOT          SUNNY     69  38  32 W25G31    29.78S
BISMARCK       PTSUNNY   70  45  40 NW16G26   29.83S

SOUTHERN SASKATCHEWAN


CITY           SKY/WX    TMP DP  RH WIND       PRES   REMARKS
REGINA         LGT RAIN  54  41  62 W28G43    29.72S
MOOSE JAW      LGT RAIN  54  41  62 W31G41    29.76S
ESTEVAN        MOSUNNY   63  36  36 W39G54    29.74F
SWIFT CURRENT  LGT RAIN  46  43  87 W30G36    29.83S





USA.gov is the U.S. government's official web portal to all federal, state and local government web resources and services.